Погода в Лиде

Беларусь     53°53′29″N   25°18′08″E
темп.,
°C
ветер,
м/с
пор.,
м/с
влажн.,
%
обл.,
%
осадки,
мм/ч
давл.,
гПа
погр.,
м
27 июня, пн
пн2700:00+22вюв337153 0.0 102156
03:00+20юв2381100 0.0 102244
06:00+20вюв34815 0.0 102280
09:00+23юв35745 0.0 1022267
12:00+26ююв356241 0.0 1023903
15:00+28ююв455496 0.0 10221930
18:00+27юв346721 0.1 1021923
21:00+23юв237962 1.1 102124
28 июня, вт
вт2800:00+20вюв338899 0.0 102229
03:00+19вюв3389100 0.0 102132
06:00+19ююв2287100 0.0 102221
09:00+23ю2378100 0.0 1021228
12:00+26ююв2367100 0.1 1021564
15:00+27юз0161100 3.8 1021686
18:00+26ююз3372100 1.4 1020363
21:00+20в338095 4.4 101939
29 июня, ср
ср2900:00+19юв228747 0.5 102013
03:00+18юв229347 2.2 102020
06:00+19ю119059 0.3 101915
09:00+23вюв11805 0.4 1019234
12:00+26вюв21695 0.2 1018502
15:00+28зсз115778 1.5 10181227
18:00+26зсз4575100 0.3 1017342
21:00+21св22865 1.8 101734
30 июня, чт
чт3000:00+20вюв339211 0.0 101749
03:00+18юв359497 0.0 1018102
06:00+18вюв379742 0.0 1018163
09:00+21юв568852 0.0 1019454
12:00+25вюв566878 0.0 1019871
15:00+26юв5663100 0.0 10191152
18:00+26ююв467499 0.0 1019900
21:00+22вюв378613 0.0 1019138
1 июля, пт
пт100:00+19вюв479174 0.0 1020124
03:00+17вюв49935 0.0 1020176
06:00+17юв38935 0.0 1020171
09:00+22юв467830 0.0 1020356
12:00+25юв56645 0.0 10201185
15:00+26ююв565912 0.0 10201637
18:00+26юв46685 0.0 10191027
21:00+21вюв4983100 0.0 1019189